Skip Page Navigation
NASA JPL Caltech
NASA Logo - Jet Propulsion Laboratory + View the NASA Portal
+ Near-Earth Object (NEO) Program
Search JPL
JPL Home Earth Solar System Stars & Galaxies Technology
JPL Solar System Dynamics
BODIES ORBITS EPHEMERIDES TOOLS PHYSICAL DATA DISCOVERY FAQ SITE MAP
JPL Small-Body Database Browser
Search: [ help ]  
12362 Mumuryk (1993 TS1)
Classification: Main-belt Asteroid          SPK-ID: 2012362
Ephemeris | Orbit Diagram | Orbital Elements | Physical Parameters | Discovery Circumstances | Close-Approach Data ]

[ show orbit diagram ]
Orbital Elements at Epoch 2456800.5 (2014-May-23.0) TDB
Reference: JPL 4 (heliocentric ecliptic J2000)
 Element Value Uncertainty (1-sigma)   Units 
e .09780880570666579 8.1034e-08  
a 3.132638205816392 4.3135e-08 AU
q 2.826238604194418 2.5123e-07 AU
i 13.98055395551409 9.2611e-06 deg
node 196.6286252444857 2.3722e-05 deg
peri 168.5855187400386 4.5623e-05 deg
M 278.8706444723496 4.5564e-05 deg
tp 2457256.893355074576
(2015-Aug-22.39335507)
0.00026226 JED
period 2025.180734621397
5.54
4.1828e-05
1.145e-07
d
yr
n .1777619122311576 3.6715e-09 deg/d
Q 3.439037807438365 4.7354e-08 AU
  Orbit Determination Parameters
   # obs. used (total)      849  
   data-arc span      9418 days (25.79 yr)  
   first obs. used      1987-08-06  
   last obs. used      2013-05-19  
   planetary ephem.      DE431  
   SB-pert. ephem.      SB431-BIG16  
   condition code      0  
   fit RMS      .54893  
   data source      ORB  
   producer      Otto Matic  
   solution date      2014-Jun-09 20:21:09  

Additional Information
 Earth MOID = 1.82529 AU 
 T_jup = 3.160 
[ show covariance matrix ]

Ephemeris | Orbit Diagram | Orbital Elements | Physical Parameters | Discovery Circumstances | Close-Approach Data ]

Physical Parameter Table
Parameter Symbol Value Units Sigma Reference Notes
absolute magnitude H 12.8 mag n/a MPO263460  

12362 Mumuryk           Discovered 1993 Oct. 15 by K. Endate and K. Watanabe at Kitami.
Mumuryk Keiko Yuharo (b. 1959) is a painter and illustrator. Having started painting as a 4-year-old, she works in oil, water, engraving and relief. Her illustrations were used for posters by the Japanese International Space Station and the STS-123 Mission.
NOTE: some special characters may not display properly (any characters within {} are an attempt to place the proper accent above a character)
Reference: 20080618/MPCPages.arcLast Updated: 2008-06-20

[ show close-approach data ]
Alternate Designations
 1993 TS1 = 1987 PK = 1987 SA18 
Ephemeris | Orbit Diagram | Orbital Elements | Physical Parameters | Discovery Circumstances | Close-Approach Data ]
ABOUT SSD CREDITS/AWARDS PRIVACY/COPYRIGHT GLOSSARY LINKS
FirstGov 2014-Jul-26 15:10 UT
(server date/time)  
NASA Home Page
Site Manager:   Donald K. Yeomans
Webmaster  Alan B. Chamberlin